Regional Weather Roundup
Issued by NWS Boston, MA

Home | Current Version | Previous Version | Text Only | Print | Product List | Glossary On
Versions: 1 2 3 4 5 6 7 8 9 10 11 12 13 14 15 16 17 18 19 20 21 22 23 24 25 26 27 28 29 30 31 32 33 34 35 36 37 38 39 40 41 42 43 44
000
ASUS41 KBOX 271110
RWRBOX

REGIONAL WEATHER ROUNDUP
NATIONAL WEATHER SERVICE TAUNTON MA
600 AM EST SAT DEC 27 2014

NOTE:  "FAIR" INDICATES FEW OR NO CLOUDS BELOW 12,000 FEET WITH NO
SIGNIFICANT WEATHER AND/OR OBSTRUCTIONS TO VISIBILITY.  THE FOLLOWING
OBSERVATION LOCATIONS DO NOT REPORT PRESENT WEATHER...PROVINCETOWN...
SMITHFIELD...BLOCK ISLAND...KEENE...AND OXFORD.

MAZALL-271200-
EASTERN MASSACHUSETTS

CITY           SKY/WX    TMP DP  RH WIND       PRES   REMARKS
BOSTON         PTCLDY    41  29  62 W8        30.16R
BEVERLY        MOCLDY    35  27  72 W5        30.15R WCI  31
LAWRENCE       MOCLDY    35  28  75 SW3       30.17R
BEDFORD        PTCLDY    35  28  75 SW7       30.15R WCI  29
BLUE HILL        N/A     36  27  69 W13       30.14R WCI  27
NORWOOD        PTCLDY    30  28  92 CALM      30.17R
MARSHFIELD     PTCLDY    34  30  86 W6        30.18R WCI  29
PLYMOUTH       CLEAR     29  28  96 W5        30.17R WCI  24
TAUNTON        CLEAR     27  24  89 CALM      30.16S
NEW BEDFORD    CLEAR     29  28  96 S5        30.17R WCI  24
$$

MAZALL-271200-
CAPE COD AND THE ISLANDS

CITY           SKY/WX    TMP DP  RH WIND       PRES   REMARKS
FALMOUTH       MOCLDY    30  28  93 SW5       30.17S WCI  25
HYANNIS        CLEAR     31  28  89 W3        30.15R
CHATHAM        CLEAR     30  27  88 W3        30.17R
PROVINCETOWN   CLEAR     43  32  65 W10       30.17R
NANTUCKET      CLEAR     39  32  76 W6        30.17R
MARTHAS VNYRD  CLEAR     31  27  85 NW6       30.17S WCI  25
$$

MAZALL-271200-
CENTRAL AND WESTERN MASSACHUSETTS

CITY           SKY/WX    TMP DP  RH WIND       PRES   REMARKS
WORCESTER      MOCLDY    33  27  78 W9        30.14S WCI  25
FITCHBURG      CLOUDY    29  25  85 NW3       30.17R
ORANGE         MOCLDY    26  24  92 CALM      30.15F
SPRINGFIELD    NOT AVBL
WESTFIELD      PTCLDY    27  24  89 SE3       30.18R
NORTH ADAMS    MOCLDY    38  29  70 W6        30.14R
PITTSFIELD     MOCLDY    36  27  69 SW3       30.14S
$$

RIZALL-271200-
RHODE ISLAND

CITY           SKY/WX    TMP DP  RH WIND       PRES   REMARKS
PROVIDENCE     PTCLDY    36  27  69 CALM      30.18R
NEWPORT        CLEAR     30  27  88 CALM      30.17S
BLOCK ISLAND   CLEAR     39  30  70 W6        30.19R
SMITHFIELD     CLEAR     34  21  60 W6        30.15S WCI  29
WESTERLY       PTCLDY    28  27  96 CALM      30.20R
$$

CTZALL-271200-
CONNECTICUT

CITY           SKY/WX    TMP DP  RH WIND       PRES   REMARKS
BRADLEY INTL   MOCLDY    27  25  92 CALM      30.18S
HARTFORD       FOG       28  27  96 CALM      30.20R VSB 1/2
BRIDGEPORT     PTCLDY    37  31  78 W3        30.21R
DANBURY        PTCLDY    30  25  81 CALM      30.21R
GROTON         PTCLDY    27  26  96 CALM      30.19S FOG
NEW HAVEN      PTCLDY    31  26  82 CALM      30.20R
CHESTER        FAIR      36  30  80 CALM      30.19R
MERIDEN        CLEAR     28  25  88 CALM      30.20R FOG
WILLIMANTIC    PTCLDY    25  22  88 CALM      30.20R
OXFORD         CLEAR     34  21  60 N5        30.19R WCI  30
$$

MEZ002-015-021-024-NHZ003-005-008-011-012-014-VTZ005-008-271200-
NORTHERN NEW ENGLAND

CITY           SKY/WX    TMP DP  RH WIND       PRES   REMARKS
PORTLAND ME    PTCLDY    30  26  85 CALM      30.11R
BANGOR ME      CLOUDY    38  28  67 SW7       30.06R
CONCORD NH     MOCLDY    27  26  96 CALM      30.14R
MANCHESTER NH  CLOUDY    33  28  81 CALM      30.13R
NASHUA NH      CLOUDY    39  28  65 VRB3      30.14R
PORTSMOUTH NH  NOT AVBL
JAFFREY NH     CLOUDY    33  27  78 SE3       30.13R
KEENE NH       MOCLDY    28  27  93 CALM      30.16R
BURLINGTON VT  CLOUDY    39  28  64 S5        30.15R
MT. WASHINGTON FOG       16  16 100 NW51G58     N/A  VSB 0   WCI  -9
$$

NYZ052-076-271200-
EASTERN NEW YORK

CITY           SKY/WX    TMP DP  RH WIND       PRES   REMARKS
ALBANY         CLOUDY    30  27  88 S3        30.20R
NEW YORK CITY  MOCLDY    45  31  58 W5        30.22R
$$

ANZALL-271200-
MARINE OBSERVATIONS

STATION/POSITION TIME  TEMP    WIND        PRES    VSBY  WAVE
                       AIR SEA DIR/SP/G                  HT/PER
                 (UTC) (F)     (DEG/KT/KT) (MB)    (MI)  (FT/S)
BOSTON BUOY      1050   42 44  280/ 12/ 14 1021.1R         2/15
BUZZARDS BAY     1000          280/  9/  9 1022.5R
NANTUCKET SOUND  1050   43 44  290/ 10/ 12 1021.3R         1/ 3
MASS BAY-STELLWA 1004   41 44  270/ 14/ 16   N/A    1 7/8  2/ 2
ISLE OF SHOALS   1100   40     260/ 15/ 17 1019.7R
S OF BLOCK IS    1008      51                N/A           4/15
$$

......................KEY.........................
  SKY/WX - SKY CONDITION/PRESENT WEATHER
  TMP    - TEMPERATURE IN FAHRENHEIT
  DWPT   - DEWPOINT IN FAHRENHEIT
  RH     - RELATIVE HUMIDITY IN PERCENT
  WIND   - DIRECTION AND SPEED IN MPH
  PRES   - MEAN SEA LEVEL PRESSURE IN INCHES OF HG
  WCI    - WIND CHILL INDEX
  VSB    - VISIBILITY IN MILES
  HX     - HEAT INDEX
  TC     - TEMPERATURE IN CELSIUS
  VRB    - VARIABLE WIND DIRECTION
  N/A    - NOT AVAILABLE


USA.gov is the U.S. government's official web portal to all federal, state and local government web resources and services.